Wind_Speed
36 52 61 71 71 75 79 79 76 74 62 60 70 70 75 81 76 78 78 76 76 74 73 72 69 67 65 65 63 63 61 61 60 59 56 54 53 52 51 48 45 46 45
28 40 58 67 70 73 79 78 64 64 56 65 57 71 75 76 76 76 76 80 80 80 78 76 73 70 67 65 65 64 64 63 62 60 57 56 56 55 52 49 47 46 46
23 39 51 57 68 73 73 71 56 45 54 64 62 72 68 76 78 77 74 75 77 81 80 77 74 73 71 70 67 65 65 64 64 61 60 57 57 55 53 52 51 50 49
17 40 56 58 65 69 74 71 63 54 48 53 55 64 65 69 75 80 81 73 73 73 74 76 76 75 75 73 73 68 68 64 66 63 65 61 61 59 58 57 57 53 54
19 45 61 62 71 78 73 78 75 63 59 54 53 56 59 67 73 77 79 80 76 74 74 75 77 79 79 78 77 74 72 70 69 68 68 66 66 65 65 62 62 59 58
27 48 50 57 66 74 76 90 82 67 60 60 66 60 65 62 65 73 76 77 79 79 78 80 80 80 81 82 82 78 75 74 73 73 71 71 69 71 70 67 67 66 67
35 53 57 58 55 58 67 87 83 80 67 55 62 51 63 70 73 72 71 71 74 78 80 82 84 84 84 84 83 81 81 80 79 78 78 76 75 75 75 72 73 69 72
25 51 59 67 61 62 64 77 76 76 70 67 61 61 63 69 76 77 79 76 77 82 82 76 75 78 82 82 83 83 82 84 84 83 81 81 77 78 78 78 76 74 74
8 53 66 69 70 64 71 83 80 77 77 76 79 66 68 71 79 78 82 82 81 80 79 83 77 77 77 78 81 81 80 82 84 84 84 82 84 82 82 83 80 78 75
18 24 59 65 77 76 73 82 73 76 78 77 82 79 81 71 75 77 82 82 81 81 84 88 90 89 87 85 87 86 86 86 86 86 85 88 86 87 86 85 83 82 81
18 22 47 64 75 81 81 80 83 82 83 82 82 81 85 76 78 78 80 80 79 84 88 87 86 88 91 93 92 93 95 92 92 90 87 89 92 93 89 88 90 88 88
24 21 29 67 79 86 91 90 91 92 94 89 85 81 84 84 86 83 89 90 92 91 93 93 93 91 92 95 100 100 102 102 102 102 107 104 103 102 100 98 95 92 94
22 28 30 46 78 87 95 99 101 95 98 94 95 90 88 89 91 92 96 100 99 103 103 103 101 100 97 98 98 98 99 100 103 102 101 96 98 96 97 97 96 95 97
23 21 32 38 55 83 95 103 103 108 105 104 102 102 98 99 98 98 100 100 104 104 103 106 108 105 103 102 100 100 102 103 102 98 98 98 99 97 98 97 99 98 97
36 28 22 38 50 71 87 93 106 114 119 115 111 106 103 108 107 104 107 107 108 109 107 106 108 108 108 108 108 108 107 107 107 110 107 106 104 106 105 105 106 105 105
44 39 38 35 54 63 77 96 103 113 118 118 118 119 117 114 115 115 116 119 116 114 118 117 115 114 113 115 115 115 114 115 116 115 113 112 111 111 111 111 111 111 108
61 56 51 47 46 52 71 84 92 106 114 117 118 121 124 124 126 125 124 125 126 126 127 125 126 124 124 124 121 122 121 120 120 113 111 113 111 110 111 110 112 114 113
67 65 64 60 57 57 58 66 85 102 106 115 121 128 133 135 136 138 138 138 136 136 135 135 135 136 135 136 134 132 128 125 124 123 122 120 118 117 122 126 123 122 119
73 74 73 71 71 71 68 68 72 76 89 110 126 133 138 141 145 146 147 148 148 148 149 151 151 151 148 145 146 145 143 138 135 133 129 128 130 127 123 124 112 117 109
79 81 80 79 79 81 83 85 84 85 85 89 101 109 126 144 149 148 151 154 155 157 158 155 157 157 156 158 159 155 155 153 151 148 138 138 138 135 137 133 131 124 125
86 85 87 89 91 93 95 94 94 94 93 93 93 96 107 116 126 140 151 160 163 163 162 164 164 166 165 163 163 163 163 158 155 154 152 147 143 141 140 137 133 130 133
93 94 97 100 101 100 99 98 98 99 99 99 98 98 99 104 121 128 134 144 149 154 162 167 168 169 168 168 169 168 167 165 162 158 155 153 151 152 151 149 144 140 137
100 103 105 106 104 104 103 102 100 99 98 98 98 99 99 101 104 108 115 128 141 150 152 151 154 161 167 170 173 172 170 169 169 166 166 161 158 159 159 154 150 149 143
107 108 109 109 109 108 105 100 96 95 96 98 99 100 101 103 105 106 108 110 115 121 126 140 149 147 147 150 155 162 169 173 173 172 171 170 166 163 163 162 159 156 151
110 112 112 113 111 105 102 99 95 94 93 92 92 93 94 97 99 101 102 105 109 112 115 118 120 123 130 136 138 143 146 149 153 160 165 167 171 172 171 169 166 164 160
113 113 114 109 103 102 101 95 90 86 84 83 83 82 83 85 87 90 92 95 97 101 102 105 108 111 112 115 121 126 128 133 138 141 141 143 145 150 156 157 158 160 163
Wind_Direction
210 208 199 200 199 201 206 208 204 201 213 226 225 228 229 230 228 236 238 240 244 246 249 251 253 252 253 255 257 257 257 258 259 260 262 266 268 269 273 276 281 283 284
196 192 194 196 195 198 201 202 203 198 209 225 229 227 231 230 233 233 236 240 243 246 248 251 252 254 255 255 257 258 259 259 259 259 261 262 265 268 271 273 276 279 283
173 174 183 192 192 195 199 193 182 196 213 222 234 237 236 232 235 237 238 239 241 245 247 250 253 254 255 255 256 258 259 260 261 261 261 261 262 266 269 271 273 274 277
161 172 172 184 191 195 193 185 183 189 203 223 236 233 232 237 236 239 239 239 244 245 248 250 252 254 255 255 256 257 259 259 259 261 261 261 263 266 267 269 271 272 274
186 176 179 183 190 191 190 180 183 191 202 212 227 230 230 234 237 238 241 242 242 244 246 248 250 252 254 257 257 256 257 258 260 259 260 261 263 265 266 269 268 272 271
189 174 184 187 187 192 192 188 194 201 206 218 223 235 231 232 237 239 240 242 246 247 247 248 248 250 253 254 258 258 258 258 259 260 259 261 262 264 267 268 268 270 271
189 172 180 177 181 184 196 196 204 208 216 213 217 230 228 228 233 237 240 241 243 246 248 249 250 250 251 253 255 257 258 257 258 259 260 260 262 263 265 267 268 269 271
208 181 185 186 183 191 198 196 200 206 213 215 222 225 231 234 234 234 237 239 243 245 243 245 246 247 250 251 253 255 257 257 257 257 259 261 262 264 265 267 266 266 270
296 197 191 193 189 193 197 196 204 209 208 212 225 228 233 237 238 235 237 238 241 242 241 242 242 242 243 247 251 253 257 258 258 259 259 260 262 264 264 266 265 267 266
308 227 204 206 204 205 210 209 210 214 217 224 227 226 229 234 234 229 235 240 240 241 240 243 244 243 245 246 245 246 247 249 251 253 256 257 258 259 262 262 262 263 263
315 253 220 211 207 209 210 215 215 220 222 223 219 224 229 235 234 231 231 234 239 243 243 244 247 247 248 248 249 248 250 251 251 252 256 256 258 259 258 259 261 263 263
315 285 261 212 212 215 215 216 218 223 225 223 226 232 233 235 236 233 232 238 242 245 247 248 249 246 246 248 248 250 252 254 255 257 259 258 259 258 261 261 261 264 265
319 295 280 247 220 219 218 221 221 223 224 229 233 235 237 237 237 237 237 236 241 245 248 250 251 251 253 252 251 252 253 252 252 253 253 254 257 259 260 262 263 265 268
315 306 270 262 243 224 223 223 225 227 230 235 235 236 239 238 240 241 240 240 241 245 247 248 249 250 251 252 250 250 250 249 251 253 256 257 258 260 261 263 265 265 267
312 288 267 254 247 239 233 232 231 232 235 236 238 240 242 240 242 243 242 241 242 244 246 248 248 250 251 251 252 251 250 250 252 255 258 259 262 261 262 264 266 266 269
310 299 268 262 247 240 238 238 235 234 235 237 239 241 243 244 244 244 244 242 244 246 247 246 248 250 251 252 252 254 255 256 255 256 257 258 257 258 259 261 264 267 270
311 306 298 287 258 248 245 240 240 240 242 241 242 243 243 246 247 248 247 248 247 247 248 250 251 252 251 250 251 254 253 256 256 255 257 259 261 261 263 264 265 269 270
307 304 299 294 286 276 257 246 245 241 241 242 244 244 245 246 248 249 251 251 250 250 249 250 251 252 252 251 250 250 252 254 256 258 258 258 262 263 262 264 268 271 271
303 301 298 295 292 289 283 276 265 254 249 247 245 243 244 246 248 248 249 250 250 251 252 252 253 253 252 252 252 251 251 253 253 254 255 257 259 259 257 265 259 269 265
299 299 299 297 295 294 291 288 282 277 267 259 251 249 249 248 247 248 249 250 251 251 251 251 252 251 252 252 252 253 254 254 254 254 255 258 259 261 260 261 262 262 261
300 301 301 300 297 295 291 289 286 283 279 275 268 261 254 250 250 250 249 249 249 250 250 250 251 252 251 251 252 254 254 253 255 257 258 257 256 256 258 259 262 261 263
300 301 300 298 296 295 292 290 287 286 284 281 277 271 264 257 251 248 250 251 252 252 252 251 251 252 252 252 252 253 254 255 255 255 256 257 257 256 258 259 261 261 262
303 301 299 298 298 296 295 293 290 287 283 280 277 273 269 265 261 256 253 251 251 252 254 255 254 253 254 253 254 254 255 255 257 256 257 256 257 258 259 259 260 261 261
301 301 301 300 299 299 297 293 289 286 283 279 276 273 271 268 266 263 260 257 255 253 252 252 253 255 256 256 257 256 256 256 257 256 257 258 258 257 258 260 262 263 263
302 302 301 301 300 299 296 293 290 286 283 279 276 274 271 269 267 265 263 261 259 258 257 256 254 253 254 255 256 257 257 257 257 258 258 258 259 259 260 260 260 261 263
302 302 302 301 300 298 296 294 292 289 285 282 279 276 273 270 268 266 265 263 261 261 259 257 257 256 254 253 254 254 254 255 257 258 258 259 259 258 259 260 261 261 261
Height
10471 10483 10501 10516 10537 10556 10578 10601 10621 10640 10650 10663 10668 10673 10679 10686 10693 10699 10706 10712 10715 10722 10727 10731 10735 10737 10740 10743 10745 10746 10748 10749 10750 10750 10752 10754 10754 10756 10756 10755 10756 10754 10753
10468 10483 10500 10517 10535 10552 10570 10592 10613 10631 10646 10653 10654 10659 10667 10676 10683 10688 10694 10701 10706 10709 10715 10719 10723 10725 10729 10731 10733 10734 10735 10737 10737 10739 10742 10742 10743 10743 10744 10745 10744 10743 10743
10479 10482 10503 10524 10536 10551 10569 10589 10612 10628 10636 10641 10647 10653 10659 10665 10671 10677 10682 10687 10693 10696 10703 10707 10711 10714 10716 10718 10719 10722 10722 10724 10725 10727 10729 10730 10730 10730 10731 10731 10731 10731 10731
10489 10496 10505 10524 10540 10554 10569 10588 10604 10617 10624 10633 10636 10640 10646 10652 10659 10665 10670 10674 10679 10684 10689 10692 10696 10699 10701 10704 10705 10709 10708 10712 10711 10714 10712 10716 10717 10717 10716 10717 10717 10719 10719
10494 10497 10506 10519 10534 10546 10565 10578 10589 10598 10605 10617 10621 10626 10634 10641 10646 10650 10655 10660 10666 10669 10673 10676 10680 10683 10686 10688 10690 10693 10694 10697 10697 10699 10698 10702 10702 10701 10701 10701 10703 10707 10705
10500 10507 10522 10527 10535 10543 10558 10567 10576 10583 10592 10601 10609 10612 10618 10626 10632 10638 10643 10647 10652 10655 10657 10660 10663 10666 10669 10672 10674 10677 10681 10682 10682 10683 10685 10684 10687 10686 10686 10686 10686 10689 10689
10510 10514 10524 10534 10543 10549 10554 10562 10571 10579 10587 10593 10597 10601 10604 10608 10614 10621 10626 10631 10635 10637 10640 10644 10646 10648 10650 10653 10657 10660 10662 10664 10667 10667 10666 10669 10670 10668 10670 10673 10671 10671 10670
10522 10523 10529 10537 10544 10549 10555 10562 10567 10576 10578 10584 10587 10589 10593 10595 10599 10601 10607 10612 10615 10616 10621 10623 10625 10627 10630 10632 10636 10640 10643 10645 10647 10649 10651 10649 10652 10651 10652 10653 10653 10657 10655
10527 10527 10531 10534 10540 10543 10550 10552 10560 10566 10570 10574 10572 10577 10580 10582 10583 10587 10593 10595 10595 10596 10599 10602 10605 10607 10609 10612 10615 10619 10622 10624 10627 10630 10630 10633 10633 10631 10631 10634 10635 10634 10640
10520 10528 10530 10533 10538 10542 10545 10551 10552 10555 10556 10558 10561 10563 10565 10567 10568 10572 10575 10577 10577 10579 10581 10583 10585 10588 10590 10592 10594 10597 10598 10601 10604 10606 10608 10611 10612 10612 10611 10610 10612 10613 10613
10519 10522 10525 10530 10531 10534 10536 10538 10540 10541 10542 10543 10544 10546 10551 10554 10556 10557 10558 10557 10559 10559 10560 10562 10565 10568 10572 10573 10577 10578 10578 10580 10581 10584 10586 10588 10588 10592 10592 10590 10589 10590 10590
10514 10516 10519 10520 10521 10522 10524 10525 10524 10527 10528 10529 10531 10530 10532 10534 10538 10539 10541 10541 10541 10540 10542 10543 10545 10546 10548 10551 10553 10555 10557 10562 10562 10563 10564 10566 10563 10568 10570 10571 10571 10570 10568
10512 10510 10510 10513 10512 10511 10508 10511 10511 10514 10514 10512 10513 10515 10516 10516 10516 10518 10519 10520 10520 10521 10522 10522 10523 10524 10525 10527 10529 10531 10534 10537 10537 10539 10540 10545 10545 10549 10549 10549 10552 10552 10548
10508 10504 10501 10499 10502 10502 10499 10498 10500 10498 10495 10494 10495 10494 10495 10496 10496 10498 10497 10498 10499 10499 10498 10498 10499 10499 10501 10502 10502 10505 10509 10512 10514 10516 10520 10523 10525 10527 10525 10527 10528 10529 10529
10498 10495 10492 10488 10488 10490 10489 10486 10484 10479 10475 10475 10478 10478 10477 10474 10474 10476 10474 10473 10472 10474 10475 10475 10475 10476 10476 10475 10475 10478 10481 10485 10489 10492 10494 10497 10500 10503 10502 10503 10504 10505 10508
10480 10478 10478 10474 10471 10467 10464 10463 10461 10459 10458 10459 10454 10452 10451 10448 10446 10445 10445 10446 10446 10446 10446 10445 10447 10450 10450 10450 10449 10451 10454 10458 10463 10467 10468 10469 10472 10475 10476 10478 10480 10482 10484
10458 10455 10453 10450 10450 10448 10445 10442 10439 10438 10434 10432 10428 10424 10421 10419 10415 10411 10412 10413 10413 10413 10415 10415 10417 10419 10420 10420 10421 10421 10428 10432 10437 10439 10440 10440 10442 10445 10447 10447 10451 10457 10459
10438 10433 10428 10425 10423 10420 10418 10414 10412 10409 10403 10400 10396 10393 10391 10386 10381 10377 10376 10376 10377 10377 10378 10380 10383 10386 10386 10385 10387 10390 10395 10404 10410 10412 10413 10415 10415 10418 10419 10422 10427 10431 10433
10414 10409 10404 10399 10394 10389 10386 10382 10378 10375 10372 10365 10359 10352 10349 10347 10343 10340 10339 10337 10338 10338 10340 10341 10343 10345 10348 10347 10350 10352 10358 10368 10378 10382 10384 10387 10390 10391 10389 10397 10400 10403 10408
10389 10382 10375 10369 10364 10358 10353 10347 10341 10336 10332 10326 10319 10312 10309 10310 10305 10299 10297 10295 10295 10296 10296 10297 10298 10301 10304 10304 10308 10312 10319 10329 10336 10346 10356 10358 10361 10361 10360 10365 10372 10382 10381
10362 10354 10345 10338 10331 10324 10316 10307 10300 10293 10287 10281 10275 10269 10266 10261 10257 10253 10249 10249 10247 10248 10249 10252 10254 10256 10261 10265 10267 10272 10279 10289 10294 10305 10318 10327 10326 10327 10328 10332 10343 10352 10350
10331 10323 10313 10302 10293 10284 10275 10266 10258 10250 10241 10233 10225 10218 10214 10210 10209 10207 10202 10200 10200 10202 10204 10206 10210 10211 10214 10219 10225 10230 10236 10242 10252 10268 10276 10285 10290 10290 10294 10299 10313 10315 10321
10296 10286 10275 10263 10250 10242 10232 10223 10213 10204 10195 10186 10178 10171 10166 10161 10158 10159 10159 10158 10155 10156 10156 10158 10164 10169 10172 10179 10183 10189 10196 10205 10210 10224 10232 10244 10256 10253 10254 10267 10277 10281 10293
10258 10245 10233 10221 10209 10198 10186 10177 10171 10162 10153 10144 10135 10127 10122 10115 10112 10112 10113 10114 10110 10109 10114 10117 10120 10128 10134 10136 10141 10148 10156 10163 10169 10181 10191 10200 10211 10220 10225 10229 10237 10245 10264
10223 10210 10196 10182 10169 10156 10142 10132 10126 10117 10107 10099 10092 10085 10080 10075 10071 10069 10069 10070 10068 10070 10073 10075 10083 10090 10097 10101 10104 10105 10113 10120 10127 10134 10142 10157 10170 10177 10185 10193 10201 10208 10224
10187 10173 10157 10144 10131 10118 10101 10092 10084 10075 10066 10058 10051 10047 10043 10038 10035 10033 10030 10030 10031 10029 10034 10039 10042 10049 10058 10063 10065 10068 10075 10085 10087 10091 10104 10116 10128 10137 10139 10146 10155 10168 10186